Tacoma Narrows, WA

5:33 PM PDT on June 27, 2017 (GMT -0700)
Tacoma Narrows

Weather History for KTIW - October, 2012

Change the Weather History Date:

Tuesday, October 2, 2012

  Actual Average Record
Temperature  
Mean Temperature 56 °F -  
Max Temperature 61 °F 62 °F 70 °F (2004)
Min Temperature 51 °F 48 °F 42 °F (2002)
Degree Days  
Heating Degree Days 10    
Growing Degree Days 6 (Base 50)    
Moisture  
Dew Point 42 °F    
Average Humidity 61    
Maximum Humidity 83    
Minimum Humidity 36    
Precipitation  
Precipitation 0.00 in - - ()
Sea Level Pressure  
Sea Level Pressure 30.20 in    
Wind  
Wind Speed 5 mph (North)    
Max Wind Speed 15 mph    
Max Gust Speed 24 mph    
Visibility 10 miles    
Events      
Averages and records for this station are not official NWS values.
T = Trace of Precipitation, MM = Missing Value Source: NWS Daily Summary

Daily Weather History Graph

Daily Weather History Graph

Search for Another Location

Airport or City:

Trip Planner

Search our weather history database for the weather conditions in past years. The results will help you decide how hot, cold, wet, or windy it might be!

Date:

Astronomy

Oct. 02, 2012 Rise Set
Actual Time 7:11 AM PDT 6:46 PM PDT
Civil Twilight 6:40 AM PDT 7:17 PM PDT
Nautical Twilight 6:05 AM PDT 7:52 PM PDT
Astronomical Twilight 5:29 AM PDT 8:28 PM PDT
Moon 7:48 PM PDT (10/2) 9:57 AM PDT (10/2)
Length of Visible Light 12h 36m
Length of Day
11h 35m
Waning Gibbous, 93% of the Moon is Illuminated
Oct 2
Waning Gibbous
Oct 8
Last Quarter
Oct 15
New
Oct 21
First Quarter
Oct 29
Full

Hourly Weather History & Observations

Time (PDT) Temp. Dew Point Humidity Pressure Visibility Wind Dir Wind Speed Gust Speed Precip Events Conditions
12:22 AM 57.2 °F 48.2 °F 72% 30.16 in 9.0 mi NE 4.6 mph - N/A   Overcast
12:53 AM 55.9 °F 50.0 °F 80% 30.17 in 10.0 mi NNW 3.5 mph - 0.00 in   Overcast
1:53 AM 57.0 °F 46.9 °F 69% 30.17 in 10.0 mi NE 3.5 mph - N/A   Overcast
2:53 AM 55.9 °F 46.9 °F 72% 30.17 in 10.0 mi Calm Calm - N/A   Overcast
3:53 AM 55.0 °F 46.9 °F 74% 30.18 in 10.0 mi WNW 3.5 mph - N/A   Overcast
4:13 AM 55.4 °F 46.4 °F 72% 30.18 in 10.0 mi WNW 4.6 mph - N/A   Overcast
4:53 AM 54.0 °F 46.9 °F 77% 30.19 in 10.0 mi Calm Calm - N/A   Overcast
5:43 AM 53.6 °F 46.4 °F 77% 30.20 in 10.0 mi North 8.1 mph - N/A   Scattered Clouds
5:53 AM 53.1 °F 46.9 °F 80% 30.20 in 10.0 mi North 6.9 mph - N/A   Partly Cloudy
6:53 AM 51.1 °F 46.0 °F 83% 30.20 in 10.0 mi North 6.9 mph - N/A   Mostly Cloudy
7:53 AM 53.1 °F 46.0 °F 77% 30.21 in 10.0 mi NNW 3.5 mph - N/A   Overcast
8:53 AM 54.0 °F 45.0 °F 72% 30.21 in 10.0 mi North 4.6 mph - N/A   Overcast
9:53 AM 55.0 °F 42.1 °F 62% 30.21 in 10.0 mi North 4.6 mph - N/A   Overcast
10:53 AM 55.9 °F 39.0 °F 53% 30.20 in 10.0 mi North 3.5 mph - N/A   Overcast
11:53 AM 57.9 °F 37.9 °F 47% 30.20 in 10.0 mi Calm Calm - N/A   Overcast
12:53 PM 60.1 °F 36.0 °F 41% 30.19 in 10.0 mi NNE 3.5 mph - N/A   Overcast
1:53 PM 60.1 °F 36.0 °F 41% 30.18 in 10.0 mi North 5.8 mph - N/A   Overcast
2:53 PM 60.1 °F 35.1 °F 39% 30.17 in 10.0 mi Variable 4.6 mph - N/A   Mostly Cloudy
3:53 PM 60.1 °F 33.1 °F 36% 30.18 in 10.0 mi NNE 6.9 mph - N/A   Overcast
4:53 PM 57.2 °F 35.6 °F 44% 30.19 in 10.0 mi North 9.2 mph - N/A   Overcast
5:53 PM 57.0 °F 36.0 °F 45% 30.20 in 10.0 mi North 15.0 mph 24.2 mph N/A   Mostly Cloudy
6:53 PM 55.0 °F 37.0 °F 51% 30.20 in 10.0 mi North 10.4 mph - N/A   Scattered Clouds
7:53 PM 54.0 °F 39.0 °F 57% 30.20 in 10.0 mi NE 8.1 mph - N/A   Clear
8:53 PM 54.0 °F 37.9 °F 55% 30.22 in 10.0 mi North 11.5 mph 19.6 mph N/A   Clear
9:53 PM 53.1 °F 39.0 °F 59% 30.24 in 10.0 mi NNE 10.4 mph - N/A   Clear
10:53 PM 53.1 °F 39.0 °F 59% 30.27 in 10.0 mi NNE 8.1 mph - N/A   Clear
11:53 PM 53.1 °F 39.9 °F 61% 30.27 in 10.0 mi NNE 13.8 mph 19.6 mph N/A   Clear